This is the latest recevied weather packets stored in our database for station/object K2YYD-2. If no packets are shown the sender has not sent any weather packets the latest 1 day(s).
| Time | Temp. | Humidity | Pressure | Rain* | Wind** | Luminosity | Snow |
|---|---|---|---|---|---|---|---|
| 1778001785 | 20.56° C | 66% | 1007.4 hPa | 0 mm | 2.24 m/s, 198° | 532 W/m² | - |
| 1778001666 | 20.56° C | 65% | 1007.4 hPa | 0 mm | 1.79 m/s, 187° | 425 W/m² | - |
| 1778001545 | 20.56° C | 64% | 1007.4 hPa | 0 mm | 1.79 m/s, 196° | 516 W/m² | - |
| 1778001426 | 20.56° C | 64% | 1007.4 hPa | 0 mm | 1.79 m/s, 167° | 708 W/m² | - |
| 1778001306 | 20.56° C | 64% | 1007.4 hPa | 0 mm | 2.24 m/s, 287° | 891 W/m² | - |
| 1778001185 | 20.56° C | 65% | 1007.4 hPa | 0 mm | 2.24 m/s, 174° | 748 W/m² | - |
| 1778001066 | 21.11° C | 64% | 1007.4 hPa | 0 mm | 2.24 m/s, 182° | 466 W/m² | - |
| 1778000946 | 21.11° C | 63% | 1007.4 hPa | 0 mm | 1.79 m/s, 182° | 757 W/m² | - |
| 1778000825 | 21.67° C | 63% | 1007.5 hPa | 0 mm | 1.79 m/s, 182° | 512 W/m² | - |
| 1778000705 | 21.67° C | 62% | 1007.5 hPa | 0 mm | 1.34 m/s, 179° | 552 W/m² | - |
| 1778000586 | 21.67° C | 62% | 1007.5 hPa | 0 mm | 1.34 m/s, 196° | 765 W/m² | - |
| 1778000466 | 21.67° C | 61% | 1007.5 hPa | 0 mm | 1.34 m/s, 124° | 930 W/m² | - |
| 1778000346 | 21.67° C | 62% | 1007.5 hPa | 0 mm | 1.34 m/s, 181° | 762 W/m² | - |
| 1778000228 | 21.67° C | 62% | 1007.5 hPa | 0 mm | 1.34 m/s, 272° | 920 W/m² | - |
| 1778000105 | 21.67° C | 62% | 1007.5 hPa | 0 mm | 1.34 m/s, 177° | 782 W/m² | - |
| 1777999986 | 21.67° C | 61% | 1007.5 hPa | 0 mm | 1.34 m/s, 299° | 686 W/m² | - |
| 1777999866 | 21.67° C | 61% | 1007.5 hPa | 0 mm | 1.79 m/s, 66° | 434 W/m² | - |
| 1777999746 | 21.67° C | 61% | 1007.5 hPa | 0 mm | 1.79 m/s, 179° | 348 W/m² | - |
| 1777999625 | 21.67° C | 61% | 1007.6 hPa | 0 mm | 1.79 m/s, 253° | 217 W/m² | - |
| 1777999506 | 21.11° C | 62% | 1007.5 hPa | 0 mm | 1.79 m/s, 211° | 326 W/m² | - |
| 1777999386 | 21.11° C | 61% | 1007.6 hPa | 0 mm | 1.79 m/s, 178° | 369 W/m² | - |
| 1777999266 | 21.67° C | 61% | 1007.6 hPa | 0 mm | 1.34 m/s, 187° | 421 W/m² | - |
| 1777999145 | 21.67° C | 61% | 1007.6 hPa | 0 mm | 1.34 m/s, 167° | 571 W/m² | - |
| 1777999024 | 21.67° C | 60% | 1007.7 hPa | 0 mm | 1.34 m/s, 261° | 527 W/m² | - |
| 1777998904 | 21.67° C | 61% | 1007.7 hPa | 0 mm | 1.34 m/s, 303° | 697 W/m² | - |
* Rain latest hour (hover to see other rain measurements)
** Current wind speed in m/s (hover to see current wind gust speed)